This demonstration page uses our WeatherBlox Daily Observations layout. Learn more.

Left ArrowRight Arrow

41.12389, -100.76542

Hourly Observations for August 13, 2019

Temp ( °F °C ) Dew Point ( °F °C ) Humidity (%) Winds ( mph kmh ) Pressure ( in mb ) Visibility ( mi km ) Precip ( " mm )
12:53 am 00:53 Clear 64 17.8 61 16.1 90 90 ENE 3 6 29.98 1015 10 16 0.00 0.00
1:53 am 01:53 Clear 65 18.3 62 16.7 90 90 SE 6 9 29.99 1016 10 16 0.00 0.00
2:53 am 02:53 Clear 64 17.8 61 16.1 90 90 VRB 3 6 29.99 1016 10 16 0.00 0.00
3:53 am 03:53 Clear 64 17.8 61 16.1 90 90 WSW 5 7 30.01 1016 10 16 0.00 0.00
4:53 am 04:53 Clear 62 16.7 60 15.6 93 93 Calm 30.01 1016 10 16 0.00 0.00
5:53 am 05:53 Clear 60 15.6 58 14.4 93 93 Calm 30.02 1017 10 16 0.00 0.00
6:53 am 06:53 Sunny 59 15 58 14.4 96 96 Calm 30.04 1017 10 16 0.00 0.00
7:53 am 07:53 Sunny 63 17.2 61 16.1 93 93 E 5 7 30.05 1018 10 16 0.00 0.00
8:53 am 08:53 Sunny 67 19.4 64 17.8 91 91 Calm 30.07 1018 10 16 0.00 0.00
9:53 am 09:53 Sunny 71 21.7 66 18.9 84 84 S 6 9 30.07 1018 10 16 0.00 0.00
10:53 am 10:53 Mostly Cloudy 76 24.4 62 16.7 62 62 E 7 11 30.09 1019 10 16 0.00 0.00
11:53 am 11:53 Sunny 80 26.7 61 16.1 52 52 ESE 10 17 30.09 1019 10 16 0.00 0.00
12:53 pm 12:53 Sunny 82 27.8 59 15 46 46 ESE 10 17 30.06 1018 10 16 0.00 0.00
1:53 pm 13:53 Sunny 80 26.7 59 15 49 49 SE 10 17 30.06 1018 10 16 0.00 0.00
2:53 pm 14:53 Sunny 74 23.3 61 16.1 64 64 E 3 6 30.10 1019 10 16 0.00 0.00
3:53 pm 15:53 Mostly Sunny 75 23.9 57 13.9 54 54 SSE 13 20 29.95 1014 10 16 0.00 0.00
4:53 pm 16:53 Sunny 73 22.8 56 13.3 55 55 N 10 17 30.05 1018 10 16 0.00 0.00
5:53 pm 17:53 Sunny 73 22.8 59 15 62 62 NE 13 20 30.05 1018 10 16 0.00 0.00
6:53 pm 18:53 Sunny 74 23.3 60 15.6 62 62 ENE 13 20 30.04 1017 10 16 0.00 0.00
7:53 pm 19:53 Sunny 72 22.2 62 16.7 71 71 ENE 7 11 30.05 1018 10 16 0.00 0.00
8:53 pm 20:53 Clear 69 20.6 62 16.7 78 78 ENE 6 9 30.08 1019 10 16 0.00 0.00
9:53 pm 21:53 Clear 65 18.3 60 15.6 84 84 ENE 7 11 30.10 1019 10 16 0.00 0.00
10:53 pm 22:53 Clear 62 16.7 59 15 90 90 Calm 30.12 1020 10 16 0.00 0.00
11:53 pm 23:53 Clear 62 16.7 59 15 90 90 Calm 30.13 1020 10 16 0.00 0.00

Powered by AerisWeather